Home   Weather   Hobart   Past weeks

Flag for Australia Past Weather in Hobart, Tasmania, Australia — Yesterday and Last 2 Weeks

46 °F

Passing clouds.

Feels Like: 43 °F
Forecast: 38 / 59 °F
Wind: 7 mph from Southwest

Location: Hobart Airport

Current Time: Oct 27, 2016 at 8:17:41 AM

Latest Report: Oct 27, 2016 at 7:00 AM

Visibility: N/A

Pressure: 30.01 "Hg

Humidity: 66%

Dew Point: 36 °F

Location of HobartLocation

Past Weather in Hobart — Graph


Hobart Temperature Yesterday

Maximum temperature yesterday: 66 °F (at 1:00 PM)
Minimum temperature yesterday: 55 °F (at 1:00 AM)
Average temperature yesterday: 60 °F

High & Low Weather Summary for the Past Weeks

High75 °F (Oct 15, 2:00 PM)100% (Oct 17, 5:00 AM)30.24 "Hg (Oct 17, 5:00 AM)
Low39 °F (Oct 13, 1:00 AM)24% (Oct 15, 3:00 PM)29.30 "Hg (Oct 16, 3:30 PM)
Average53 °F62%29.83 "Hg
* Reported Oct 12 7:00 AM — Oct 27 7:00 AM, Hobart, Weather by CustomWeather, © 2016

Note: Actual official high and low records may vary slightly from our data, if they occured in-between our weather recording intervals... More about our weather records


Hobart Weather History for the Previous 24 Hours

Scroll right to see more
Time TempWeatherWind HumidityBarometerVisibility
7:00 AM
Thu, Oct 27
46 °FPassing clouds.7 mph66%30.01 "HgN/A
6:30 AM48 °FScattered clouds.10 mph62%29.98 "HgN/A
6:00 AM48 °FScattered clouds.15 mph66%29.95 "HgN/A
5:00 AM48 °FPassing clouds.13 mph66%29.92 "HgN/A
4:00 AM48 °FPassing clouds.13 mph76%29.89 "HgN/A
3:00 AM50 °FScattered showers. Partly cloudy.12 mph71%29.89 "HgN/A
2:00 AM50 °FSprinkles. Passing clouds.15 mph82%29.86 "HgN/A
1:00 AM55 °FPassing clouds.8 mph55%29.83 "HgN/A
12:30 AM54 °FOvercast.14 mph63%29.80 "HgN/A
12:00 AM55 °FPassing clouds.12 mph59%29.80 "HgN/A
11:00 PM
Wed, Oct 26
55 °FPartly cloudy.12 mph59%29.80 "HgN/A
10:30 PM55 °FPassing clouds.7 mph59%29.80 "HgN/A
10:00 PM55 °FPassing clouds.6 mph59%29.80 "HgN/A
9:30 PM55 °FPassing clouds.7 mph55%29.77 "HgN/A
9:00 PM57 °FPassing clouds.17 mph48%29.77 "HgN/A
8:00 PM57 °FPassing clouds.6 mph44%29.74 "HgN/A
7:30 PM59 °FPassing clouds.7 mph42%29.74 "HgN/A
7:00 PM61 °FPassing clouds.13 mph34%29.71 "HgN/A
6:30 PM63 °FPassing clouds.15 mph34%29.71 "HgN/A
6:00 PM63 °FPassing clouds.16 mph32%29.71 "HgN/A
5:30 PM64 °FScattered clouds.12 mph32%29.68 "HgN/A
5:00 PM63 °FPassing clouds.9 mph56%29.68 "HgN/A
4:30 PM61 °FPassing clouds.8 mph55%29.68 "HgN/A
4:00 PM61 °FPassing clouds.13 mph59%29.68 "HgN/A
3:30 PM57 °FPassing clouds.16 mph72%29.68 "HgN/A
3:00 PM59 °FPassing clouds.17 mph68%29.68 "HgN/A
2:30 PM59 °FPassing clouds.20 mph72%29.68 "HgN/A
2:00 PM61 °FScattered clouds.18 mph68%29.68 "HgN/A
1:30 PM64 °FPassing clouds.8 mph40%29.68 "HgN/A
1:00 PM66 °FPassing clouds.10 mph40%29.65 "HgN/A
12:30 PM64 °FPassing clouds.12 mph40%29.65 "HgN/A
12:00 PM64 °FPassing clouds.15 mph43%29.68 "HgN/A
11:30 AM64 °FPassing clouds.13 mph43%29.68 "HgN/A
11:00 AM63 °FPassing clouds.14 mph52%29.68 "HgN/A
10:30 AM64 °FPassing clouds.13 mph49%29.68 "HgN/A
10:00 AM63 °FPassing clouds.15 mph42%29.68 "HgN/A
9:30 AM63 °FPassing clouds.13 mph45%29.68 "HgN/A
9:00 AM59 °FPassing clouds.14 mph51%29.68 "HgN/A
8:30 AM61 °FScattered clouds.16 mph48%29.68 "HgN/A
8:00 AM59 °FScattered clouds.17 mph51%29.68 "HgN/A
Weather by CustomWeather, © 2016

See weather overviewHow to use our weather pages